#timestamp,LO_Frequency,Hit,StdDev 
1525096815.8,286046998.1,N
1525096835.6,286046999.1,N
1525096855.5,286046999.6,N
1525096875.3,286046995.0,Y
1525096895.2,286046995.7,P
1525096915.0,286046995.7,N
1525096915.9,286046995.7,N
1525096935.7,286046995.0,N
1525096955.6,286046997.0,N
1525096975.4,286046996.6,N
1525096995.3,286046999.4,N
1525097015.1,286046996.9,N
1525097016.0,286046996.9,N
1525097035.8,286046998.0,N
1525097055.7,286046997.2,N
1525097075.5,286046995.7,Y
1525097095.4,286046997.2,P
1525097115.2,286046996.7,P
1525097135.0,286046999.5,N
1525097135.9,286046999.5,N
1525097155.8,286046998.3,N
1525097175.6,286047000.6,N
1525097195.4,286047001.1,N
1525097215.3,286046998.1,N
1525097235.1,286046998.4,N
1525097255.9,286046998.3,N
1525097275.7,286046998.3,N
1525097295.5,286046999.5,N
1525097315.4,286046999.3,N
1525097335.2,286046999.4,N
1525097355.0,286047000.7,N
1525097355.9,286047000.7,N
1525097375.8,286047000.4,N
1525097395.6,286046999.9,N
1525097415.5,286047000.1,N
1525097435.3,286047000.4,N
1525097455.1,286047001.0,N
1525097475.9,286046999.9,N
1525097495.7,286047002.0,N
1525097515.6,286047001.3,N
1525097535.4,286047003.2,N
1525097555.2,286047004.3,N
1525097575.1,286047002.7,N
1525097595.9,286047000.3,N
1525097615.7,286046999.8,N
1525097635.6,286047002.8,N
1525097655.4,286047002.3,N
1525097675.2,286047001.2,N
1525097695.1,286047000.4,N
1525097696.0,286047000.4,N
1525097715.8,286047000.6,N
1525097735.7,286047000.1,N
1525097755.5,286047002.2,N
1525097775.3,286047002.2,N
1525097795.2,286047003.9,N
1525097815.0,286047004.0,N
1525097815.9,286047004.0,N
1525097835.7,286047004.4,N
1525097855.6,286047001.9,N
1525097875.4,286047002.2,N
1525097895.3,286047001.7,N
1525097915.1,286047003.5,N
1525097935.8,286047005.8,Y
1525097955.7,286047001.6,P
1525097975.5,286047002.4,P
1525097995.4,286047002.8,P
1525098015.2,286047002.4,Y
1525098035.0,286046998.2,P
1525098035.9,286046998.2,N
1525098055.8,286046998.3,N
1525098075.6,286046998.9,N
1525098095.4,286046998.3,N
1525098115.3,286047001.0,N
1525098135.1,286046998.7,N
1525098155.9,286046998.6,N
1525098175.7,286047001.0,N
1525098195.5,286047000.6,N
1525098215.4,286047002.5,N
1525098235.2,286047000.4,N
1525098255.0,286047000.2,N
1525098256.0,286047000.2,N
1525098275.8,286047000.6,N
1525098295.6,286046998.4,N
1525098315.5,286046998.5,N
1525098335.3,286046999.6,N
1525098355.1,286046996.6,N
1525098375.9,286046998.7,N
1525098395.7,286046999.3,N
1525098415.6,286046999.0,N
1525098435.4,286046998.1,N
1525098455.2,286046999.4,N
1525098475.1,286046998.9,N
1525098476.0,286046998.9,N
1525098495.8,286046999.0,N
1525098515.6,286047000.7,N
1525098535.5,286046999.8,N
1525098555.3,286047000.7,N
1525098575.2,286046996.5,N
1525098595.9,286047001.2,N
1525098615.7,286046998.8,N
1525098635.6,286046999.4,N
1525098655.4,286046999.3,N
1525098675.2,286046999.1,N
1525098695.1,286046997.4,N
1525098696.0,286046997.4,N
1525098715.8,286046997.1,N
1525098735.7,286046999.4,N
1525098755.5,286046999.0,N
1525098775.3,286046998.2,N
1525098795.2,286046999.6,N
1525098815.0,286046999.2,N
1525098815.9,286046999.2,N
1525098835.8,286047000.2,N
1525098855.6,286047002.3,N
1525098875.4,286047002.4,N
1525098895.3,286047002.0,N
1525098915.1,286047000.3,N
1525098935.8,286047000.2,N
1525098955.7,286046998.9,N
1525098975.5,286046998.6,N
1525098995.4,286047000.2,N
1525099015.2,286047002.5,N
1525099035.0,286047002.3,N
1525099035.9,286047002.3,N
1525099055.8,286047000.0,N
1525099075.6,286047002.7,N
1525099095.4,286047001.5,N
1525099115.3,286047004.3,N
1525099135.1,286047004.4,N
1525099155.9,286047002.6,N
1525099175.7,286047001.8,N
1525099195.5,286047001.6,N
1525099215.4,286047001.4,N
1525099235.2,286047004.1,N
1525099255.1,286047000.5,N
1525099256.0,286047000.5,N
1525099275.8,286046998.6,N
1525099295.6,286047000.6,N
1525099315.5,286047000.4,N
1525099335.3,286047002.6,N
1525099355.2,286047001.5,N
1525099375.9,286047001.6,N
1525099395.7,286047001.6,N
1525099415.6,286047001.8,N
1525099435.4,286047002.8,N
1525099455.2,286047002.2,N
1525099475.1,286047000.3,N
1525099476.0,286047000.3,N
1525099495.8,286047000.9,N
1525099515.7,286047000.3,N
1525099535.5,286046999.7,N
1525099555.3,286047002.5,N
1525099575.2,286047002.5,N
1525099595.0,286047003.6,N
1525099595.9,286047003.6,N
1525099615.7,286047003.2,N
1525099635.6,286047005.5,Y
1525099655.4,286047004.4,P
1525099675.3,286047004.4,P
1525099695.1,286047001.9,N
1525099715.8,286047002.7,N
1525099735.7,286047000.7,N
1525099755.5,286047000.6,N
1525099775.3,286047000.9,N
1525099795.2,286046998.1,N
1525099815.0,286046998.7,N
1525099815.9,286046998.7,N
1525099835.8,286046996.7,N
1525099855.6,286046998.1,N
1525099875.4,286046998.1,N
1525099895.3,286046999.1,N
1525099915.1,286046998.7,N
1525099935.9,286046999.2,N
1525099955.7,286046999.0,N
1525099975.5,286046999.2,N
1525099995.4,286047000.9,N
1525100015.2,286047000.3,N
1525100035.0,286047002.8,N
1525100036.0,286047002.8,N
1525100055.8,286047000.8,N
1525100075.6,286046999.7,N
1525100095.5,286046999.8,N
1525100115.3,286047002.5,N
1525100135.1,286047000.1,N
1525100155.9,286046999.7,N
1525100175.7,286047002.4,N
1525100195.6,286047000.2,N
1525100215.4,286047000.3,N
1525100235.2,286046998.5,N
1525100255.1,286046999.9,N
1525100256.0,286046999.9,N
1525100275.8,286046999.8,N
1525100295.6,286047001.9,N
1525100315.5,286047002.2,N
1525100335.3,286047001.4,N
1525100355.2,286047002.0,N
1525100375.9,286047000.5,N
1525100395.7,286047000.5,N
